Location: San Antonio
(29.4240°N, 98.4930°W)
Time: 14:30:36
(UTC-05:00)

ACS3 Solar Sail - Visible Passes

Search period start: 18 May 2026 00:00
Search period end: 28 May 2026 00:00
Orbit: 901 x 937 km, 97.2° (Epoch: 17 May)

Date Brightness Start Highest point End Pass type
(mag) Time Alt. Az. Time Alt. Az. Time Alt. Az.
18 May 3.5 01:52:57 10° NNE 01:55:29 26° NNE 01:55:29 26° NNE visible
18 May 3.8 03:36:58 10° NNW 03:38:56 15° NW 03:38:56 15° NW visible
19 May 3.3 02:01:04 10° NNE 02:03:52 29° NNE 02:03:52 29° NNE visible
19 May 3.9 03:45:55 10° NW 03:47:19 13° NW 03:47:19 13° NW visible
20 May 3.2 02:09:15 10° NNE 02:12:14 32° NNE 02:12:14 32° NNE visible
20 May 4.0 03:55:31 10° NW 03:55:41 10° NW 03:55:41 10° NW visible
21 May 3.1 02:17:27 10° N 02:20:36 33° N 02:20:36 33° N visible
22 May 3.1 02:25:43 10° N 02:28:58 34° N 02:28:58 34° N visible
23 May 3.1 02:34:00 10° N 02:37:19 33° NNW 02:37:19 33° NNW visible
24 May 4.1 01:01:26 10° NE 01:02:14 13° NE 01:02:14 13° NE visible
24 May 3.1 02:42:20 10° N 02:45:41 32° NNW 02:45:41 32° NNW visible
25 May 3.9 01:09:11 10° NE 01:10:35 15° NE 01:10:35 15° NE visible
25 May 3.2 02:50:42 10° N 02:54:02 29° NNW 02:54:02 29° NNW visible
26 May 3.8 01:17:02 10° NE 01:18:56 18° NE 01:18:56 18° NE visible
26 May 3.3 02:59:07 10° NNW 03:02:24 26° NW 03:02:24 26° NW visible
27 May 3.6 01:24:58 10° NNE 01:27:17 22° NE 01:27:17 22° NE visible
27 May 3.4 03:07:37 10° NNW 03:10:45 23° NW 03:10:45 23° NW visible
